Time,TemperatureF,DewpointF,PressureIn,WindDirection,WindDirectionDegrees,WindSpeedMPH,WindSpeedGustMPH,Humidity,HourlyPrecipIn,Conditions,Clouds,dailyrainin,SoftwareType,DateUTC
2013-03-08 00:01:00,46.0,30.0,30.17,SE,130,9.0,-999.0,52,-99.99,,,-99.99,,2013-03-08 06:01:00,
2013-03-08 00:11:00,46.0,30.0,30.17,SE,130,8.0,-999.0,52,-99.99,,,-99.99,,2013-03-08 06:11:00,
2013-03-08 00:22:00,46.0,30.0,30.17,SE,130,8.0,-999.0,52,-99.99,,,-99.99,,2013-03-08 06:22:00,
2013-03-08 00:32:00,46.0,30.0,30.17,ESE,120,9.0,-999.0,52,-99.99,,,-99.99,,2013-03-08 06:32:00,
2013-03-08 00:42:00,46.0,30.0,30.17,ESE,120,9.0,-999.0,52,-99.99,,,-99.99,,2013-03-08 06:42:00,
2013-03-08 00:51:00,46.0,30.0,30.18,ESE,120,9.0,-999.0,52,-99.99,,,-99.99,,2013-03-08 06:51:00,
2013-03-08 01:01:00,46.0,30.0,30.18,ESE,120,9.0,-999.0,52,-99.99,,,-99.99,,2013-03-08 07:01:00,
2013-03-08 01:11:00,46.0,30.0,30.18,SE,130,8.0,-999.0,52,-99.99,,,-99.99,,2013-03-08 07:11:00,
2013-03-08 01:22:00,46.0,30.0,30.18,SE,130,8.0,-999.0,52,-99.99,,,-99.99,,2013-03-08 07:22:00,
2013-03-08 01:31:00,45.0,30.0,30.19,ESE,120,9.0,-999.0,56,-99.99,,,-99.99,,2013-03-08 07:31:00,
2013-03-08 01:42:00,45.0,30.0,30.19,ESE,120,9.0,-999.0,56,-99.99,,,-99.99,,2013-03-08 07:42:00,
2013-03-08 01:51:00,45.0,30.0,30.19,ESE,120,8.0,-999.0,56,-99.99,,,-99.99,,2013-03-08 07:51:00,
2013-03-08 02:01:00,45.0,30.0,30.19,ESE,120,8.0,-999.0,56,-99.99,,,-99.99,,2013-03-08 08:01:00,
2013-03-08 02:11:00,43.0,30.0,30.19,ESE,120,10.0,-999.0,60,-99.99,,,-99.99,,2013-03-08 08:11:00,
2013-03-08 02:22:00,43.0,30.0,30.19,ESE,120,10.0,-999.0,60,-99.99,,,-99.99,,2013-03-08 08:22:00,
2013-03-08 02:32:00,43.0,30.0,30.19,ESE,120,10.0,16.0,60,-99.99,,,-99.99,,2013-03-08 08:32:00,
2013-03-08 02:42:00,43.0,30.0,30.19,ESE,120,10.0,16.0,60,-99.99,,,-99.99,,2013-03-08 08:42:00,
2013-03-08 02:52:00,43.0,30.0,30.18,ESE,120,13.0,17.0,60,-99.99,,,-99.99,,2013-03-08 08:52:00,
2013-03-08 03:03:00,43.0,30.0,30.18,ESE,120,13.0,17.0,60,-99.99,,,-99.99,,2013-03-08 09:03:00,
2013-03-08 03:11:00,43.0,30.0,30.18,ESE,120,10.0,15.0,60,-99.99,,,-99.99,,2013-03-08 09:11:00,
2013-03-08 03:21:00,43.0,30.0,30.18,ESE,120,10.0,15.0,60,-99.99,,,-99.99,,2013-03-08 09:21:00,
2013-03-08 03:32:00,43.0,30.0,30.18,ESE,120,13.0,17.0,60,-99.99,,,-99.99,,2013-03-08 09:32:00,
2013-03-08 03:42:00,43.0,30.0,30.18,ESE,120,13.0,17.0,60,-99.99,,,-99.99,,2013-03-08 09:42:00,
2013-03-08 03:52:00,43.0,32.0,30.18,ESE,120,12.0,16.0,65,-99.99,,,-99.99,,2013-03-08 09:52:00,
2013-03-08 04:01:00,43.0,32.0,30.18,ESE,120,12.0,16.0,65,-99.99,,,-99.99,,2013-03-08 10:01:00,
2013-03-08 04:11:00,43.0,32.0,30.17,ESE,110,13.0,-999.0,65,-99.99,,,-99.99,,2013-03-08 10:11:00,
2013-03-08 04:21:00,43.0,32.0,30.17,ESE,110,13.0,-999.0,65,-99.99,,,-99.99,,2013-03-08 10:21:00,
2013-03-08 04:32:00,43.0,32.0,30.17,ESE,120,13.0,17.0,65,-99.99,,,-99.99,,2013-03-08 10:32:00,
2013-03-08 04:42:00,43.0,32.0,30.17,ESE,120,13.0,17.0,65,-99.99,,,-99.99,,2013-03-08 10:42:00,
2013-03-08 04:51:00,43.0,32.0,30.18,ESE,120,12.0,16.0,65,-99.99,,,-99.99,,2013-03-08 10:51:00,
2013-03-08 05:01:00,43.0,32.0,30.18,ESE,120,12.0,16.0,65,-99.99,,,-99.99,,2013-03-08 11:01:00,
2013-03-08 05:11:00,43.0,32.0,30.19,ESE,120,10.0,15.0,65,-99.99,,,-99.99,,2013-03-08 11:11:00,
2013-03-08 05:21:00,43.0,32.0,30.19,ESE,120,10.0,15.0,65,-99.99,,,-99.99,,2013-03-08 11:21:00,
2013-03-08 05:32:00,43.0,32.0,30.19,ESE,120,13.0,17.0,65,-99.99,,,-99.99,,2013-03-08 11:32:00,
2013-03-08 05:42:00,43.0,32.0,30.19,ESE,120,13.0,17.0,65,-99.99,,,-99.99,,2013-03-08 11:42:00,
2013-03-08 05:52:00,43.0,32.0,30.20,ESE,120,12.0,16.0,65,-99.99,,,-99.99,,2013-03-08 11:52:00,
2013-03-08 06:02:00,43.0,32.0,30.20,ESE,120,12.0,16.0,65,-99.99,,,-99.99,,2013-03-08 12:02:00,
2013-03-08 06:11:00,43.0,34.0,30.19,ESE,120,10.0,16.0,70,-99.99,,,-99.99,,2013-03-08 12:11:00,
2013-03-08 06:22:00,43.0,34.0,30.19,ESE,120,10.0,16.0,70,-99.99,,,-99.99,,2013-03-08 12:22:00,
2013-03-08 06:32:00,43.0,32.0,30.19,ESE,120,12.0,16.0,65,-99.99,,,-99.99,,2013-03-08 12:32:00,
2013-03-08 06:43:00,43.0,32.0,30.19,ESE,120,12.0,16.0,65,-99.99,,,-99.99,,2013-03-08 12:43:00,
2013-03-08 06:52:00,43.0,32.0,30.19,ESE,120,10.0,15.0,65,-99.99,,,-99.99,,2013-03-08 12:52:00,
2013-03-08 07:01:00,43.0,32.0,30.19,ESE,120,10.0,15.0,65,-99.99,,,-99.99,,2013-03-08 13:01:00,
2013-03-08 07:11:00,43.0,32.0,30.20,SE,130,12.0,17.0,65,-99.99,,,-99.99,,2013-03-08 13:11:00,
2013-03-08 07:21:00,43.0,32.0,30.20,SE,130,12.0,17.0,65,-99.99,,,-99.99,,2013-03-08 13:21:00,
2013-03-08 07:32:00,43.0,34.0,30.20,SE,130,12.0,17.0,70,-99.99,,,-99.99,,2013-03-08 13:32:00,
2013-03-08 07:42:00,43.0,34.0,30.20,SE,130,12.0,17.0,70,-99.99,,,-99.99,,2013-03-08 13:42:00,
2013-03-08 07:52:00,45.0,34.0,30.19,ESE,120,12.0,16.0,65,-99.99,,,-99.99,,2013-03-08 13:52:00,
2013-03-08 08:02:00,45.0,34.0,30.19,ESE,120,12.0,16.0,65,-99.99,,,-99.99,,2013-03-08 14:02:00,
2013-03-08 08:11:00,45.0,34.0,30.19,SE,130,12.0,21.0,65,-99.99,,,-99.99,,2013-03-08 14:11:00,
2013-03-08 08:22:00,45.0,34.0,30.19,SE,130,12.0,21.0,65,-99.99,,,-99.99,,2013-03-08 14:22:00,
2013-03-08 08:32:00,46.0,34.0,30.19,ESE,120,12.0,20.0,61,-99.99,,,-99.99,,2013-03-08 14:32:00,
2013-03-08 08:42:00,46.0,34.0,30.19,ESE,120,12.0,20.0,61,-99.99,,,-99.99,,2013-03-08 14:42:00,
2013-03-08 08:52:00,48.0,36.0,30.20,ESE,120,15.0,22.0,61,-99.99,,,-99.99,,2013-03-08 14:52:00,
2013-03-08 09:03:00,48.0,36.0,30.20,ESE,120,15.0,22.0,61,-99.99,,,-99.99,,2013-03-08 15:03:00,
2013-03-08 09:11:00,48.0,36.0,30.20,ESE,120,15.0,22.0,61,-99.99,,,-99.99,,2013-03-08 15:11:00,
2013-03-08 09:22:00,48.0,36.0,30.20,ESE,120,15.0,22.0,61,-99.99,,,-99.99,,2013-03-08 15:22:00,
2013-03-08 09:32:00,50.0,36.0,30.21,SE,130,13.0,20.0,57,-99.99,,,-99.99,,2013-03-08 15:32:00,
2013-03-08 09:43:00,50.0,36.0,30.21,SE,130,13.0,20.0,57,-99.99,,,-99.99,,2013-03-08 15:43:00,
2013-03-08 09:53:00,54.0,36.0,30.19,SE,130,14.0,18.0,50,-99.99,,,-99.99,,2013-03-08 15:53:00,
2013-03-08 10:01:00,54.0,36.0,30.19,SE,130,14.0,18.0,50,-99.99,,,-99.99,,2013-03-08 16:01:00,
2013-03-08 10:11:00,55.0,37.0,30.19,SSE,150,15.0,20.0,50,-99.99,,,-99.99,,2013-03-08 16:11:00,
2013-03-08 10:22:00,55.0,37.0,30.19,SSE,150,15.0,20.0,50,-99.99,,,-99.99,,2013-03-08 16:22:00,
2013-03-08 10:32:00,55.0,37.0,30.19,SE,140,15.0,24.0,50,-99.99,,,-99.99,,2013-03-08 16:32:00,
2013-03-08 10:42:00,55.0,37.0,30.19,SE,140,15.0,24.0,50,-99.99,,,-99.99,,2013-03-08 16:42:00,
2013-03-08 10:52:00,57.0,37.0,30.19,SSE,150,20.0,30.0,47,-99.99,,,-99.99,,2013-03-08 16:52:00,
2013-03-08 11:02:00,57.0,37.0,30.19,SSE,150,20.0,30.0,47,-99.99,,,-99.99,,2013-03-08 17:02:00,
2013-03-08 11:11:00,57.0,39.0,30.19,SSE,150,17.0,30.0,50,-99.99,,,-99.99,,2013-03-08 17:11:00,
2013-03-08 11:21:00,57.0,39.0,30.19,SSE,150,17.0,30.0,50,-99.99,,,-99.99,,2013-03-08 17:21:00,
2013-03-08 11:32:00,59.0,39.0,30.19,South,170,15.0,23.0,47,-99.99,,,-99.99,,2013-03-08 17:32:00,
2013-03-08 11:42:00,59.0,39.0,30.19,South,170,15.0,23.0,47,-99.99,,,-99.99,,2013-03-08 17:42:00,
2013-03-08 11:52:00,61.0,39.0,30.19,SSW,200,14.0,25.0,44,-99.99,,,-99.99,,2013-03-08 17:52:00,
2013-03-08 12:02:00,61.0,39.0,30.19,SSW,200,14.0,25.0,44,-99.99,,,-99.99,,2013-03-08 18:02:00,
2013-03-08 12:11:00,61.0,39.0,30.19,SSW,200,12.0,20.0,44,-99.99,,,-99.99,,2013-03-08 18:11:00,
2013-03-08 12:21:00,61.0,39.0,30.19,SSW,200,12.0,20.0,44,-99.99,,,-99.99,,2013-03-08 18:21:00,
2013-03-08 12:32:00,63.0,39.0,30.19,SSW,200,16.0,25.0,41,-99.99,,,-99.99,,2013-03-08 18:32:00,
2013-03-08 12:42:00,63.0,39.0,30.19,SSW,200,16.0,25.0,41,-99.99,,,-99.99,,2013-03-08 18:42:00,
2013-03-08 12:52:00,63.0,41.0,30.17,SSE,160,15.0,21.0,45,-99.99,,,-99.99,,2013-03-08 18:52:00,
2013-03-08 13:01:00,63.0,41.0,30.17,SSE,160,15.0,21.0,45,-99.99,,,-99.99,,2013-03-08 19:01:00,
2013-03-08 13:11:00,63.0,41.0,30.16,SSE,160,15.0,23.0,45,-99.99,,,-99.99,,2013-03-08 19:11:00,
2013-03-08 13:22:00,63.0,41.0,30.16,SSE,160,15.0,23.0,45,-99.99,,,-99.99,,2013-03-08 19:22:00,
2013-03-08 13:32:00,63.0,41.0,30.14,SSE,150,14.0,23.0,45,-99.99,,,-99.99,,2013-03-08 19:32:00,
2013-03-08 13:42:00,63.0,41.0,30.14,SSE,150,14.0,23.0,45,-99.99,,,-99.99,,2013-03-08 19:42:00,
2013-03-08 13:52:00,63.0,41.0,30.13,South,190,15.0,27.0,45,-99.99,,,-99.99,,2013-03-08 19:52:00,
2013-03-08 14:01:00,63.0,41.0,30.13,South,190,15.0,27.0,45,-99.99,,,-99.99,,2013-03-08 20:01:00,
2013-03-08 14:11:00,63.0,41.0,30.13,South,190,15.0,27.0,45,-99.99,,,-99.99,,2013-03-08 20:11:00,
2013-03-08 14:21:00,63.0,41.0,30.13,South,190,15.0,27.0,45,-99.99,,,-99.99,,2013-03-08 20:21:00,
2013-03-08 14:32:00,61.0,39.0,30.12,South,170,15.0,30.0,44,-99.99,,,-99.99,,2013-03-08 20:32:00,
2013-03-08 14:42:00,61.0,39.0,30.12,South,170,15.0,30.0,44,-99.99,,,-99.99,,2013-03-08 20:42:00,
2013-03-08 14:53:00,61.0,41.0,30.11,South,170,8.0,-999.0,48,-99.99,,,-99.99,,2013-03-08 20:53:00,
2013-03-08 15:02:00,61.0,41.0,30.11,South,170,8.0,-999.0,48,-99.99,,,-99.99,,2013-03-08 21:02:00,
2013-03-08 15:11:00,61.0,39.0,30.10,SSE,150,13.0,23.0,44,-99.99,,,-99.99,,2013-03-08 21:11:00,
2013-03-08 15:21:00,61.0,39.0,30.10,SSE,150,13.0,23.0,44,-99.99,,,-99.99,,2013-03-08 21:21:00,
2013-03-08 15:32:00,61.0,37.0,30.09,SE,130,16.0,22.0,41,-99.99,,,-99.99,,2013-03-08 21:32:00,
2013-03-08 15:42:00,61.0,37.0,30.09,SE,130,16.0,22.0,41,-99.99,,,-99.99,,2013-03-08 21:42:00,
2013-03-08 15:52:00,61.0,37.0,30.09,SSE,150,13.0,-999.0,41,-99.99,,,-99.99,,2013-03-08 21:52:00,
2013-03-08 16:01:00,61.0,37.0,30.09,SSE,150,13.0,-999.0,41,-99.99,,,-99.99,,2013-03-08 22:01:00,
2013-03-08 16:11:00,61.0,37.0,30.09,SSE,150,13.0,-999.0,41,-99.99,,,-99.99,,2013-03-08 22:11:00,
2013-03-08 16:22:00,61.0,37.0,30.09,SSE,150,13.0,-999.0,41,-99.99,,,-99.99,,2013-03-08 22:22:00,
2013-03-08 16:32:00,61.0,37.0,30.09,SSE,150,13.0,-999.0,41,-99.99,,,-99.99,,2013-03-08 22:32:00,
2013-03-08 16:53:00,61.0,37.0,30.08,SE,130,8.0,-999.0,41,-99.99,,,-99.99,,2013-03-08 22:53:00,
2013-03-08 17:01:00,61.0,37.0,30.08,SE,130,8.0,-999.0,41,-99.99,,,-99.99,,2013-03-08 23:01:00,
2013-03-08 17:12:00,61.0,37.0,30.07,SE,130,9.0,-999.0,41,-99.99,,,-99.99,,2013-03-08 23:12:00,
2013-03-08 17:22:00,61.0,37.0,30.07,SE,130,9.0,-999.0,41,-99.99,,,-99.99,,2013-03-08 23:22:00,
2013-03-08 17:32:00,61.0,37.0,30.07,SSE,150,7.0,-999.0,41,-99.99,,,-99.99,,2013-03-08 23:32:00,
2013-03-08 17:42:00,61.0,37.0,30.07,SSE,150,7.0,-999.0,41,-99.99,,,-99.99,,2013-03-08 23:42:00,
2013-03-08 17:52:00,61.0,36.0,30.08,SSE,150,9.0,-999.0,38,-99.99,,,-99.99,,2013-03-08 23:52:00,
2013-03-08 18:02:00,61.0,36.0,30.08,SSE,150,9.0,-999.0,38,-99.99,,,-99.99,,2013-03-09 00:02:00,
2013-03-08 18:11:00,61.0,36.0,30.06,SE,130,12.0,20.0,38,-99.99,,,-99.99,,2013-03-09 00:11:00,
2013-03-08 18:22:00,61.0,36.0,30.06,SE,130,12.0,20.0,38,-99.99,,,-99.99,,2013-03-09 00:22:00,
2013-03-08 18:32:00,59.0,36.0,30.06,SE,130,10.0,18.0,41,-99.99,,,-99.99,,2013-03-09 00:32:00,
2013-03-08 18:42:00,59.0,36.0,30.06,SE,130,10.0,18.0,41,-99.99,,,-99.99,,2013-03-09 00:42:00,
2013-03-08 18:52:00,59.0,34.0,30.07,SSE,150,13.0,21.0,38,-99.99,,,-99.99,,2013-03-09 00:52:00,
2013-03-08 19:01:00,59.0,34.0,30.07,SSE,150,13.0,21.0,38,-99.99,,,-99.99,,2013-03-09 01:01:00,
2013-03-08 19:12:00,59.0,34.0,30.07,SE,130,14.0,21.0,38,-99.99,,,-99.99,,2013-03-09 01:12:00,
2013-03-08 19:22:00,59.0,34.0,30.07,SE,130,14.0,21.0,38,-99.99,,,-99.99,,2013-03-09 01:22:00,
2013-03-08 19:32:00,59.0,34.0,30.07,SE,130,12.0,21.0,38,-99.99,,,-99.99,,2013-03-09 01:32:00,
2013-03-08 19:42:00,59.0,34.0,30.07,SE,130,12.0,21.0,38,-99.99,,,-99.99,,2013-03-09 01:42:00,
2013-03-08 19:51:00,59.0,34.0,30.07,SE,140,14.0,25.0,38,-99.99,,,-99.99,,2013-03-09 01:51:00,
2013-03-08 20:01:00,59.0,34.0,30.07,SE,140,14.0,25.0,38,-99.99,,,-99.99,,2013-03-09 02:01:00,
2013-03-08 20:11:00,57.0,34.0,30.07,SE,130,14.0,24.0,41,-99.99,,,-99.99,,2013-03-09 02:11:00,
2013-03-08 20:21:00,57.0,34.0,30.07,SE,130,14.0,24.0,41,-99.99,,,-99.99,,2013-03-09 02:21:00,
2013-03-08 20:31:00,57.0,34.0,30.07,SE,130,15.0,23.0,41,-99.99,,,-99.99,,2013-03-09 02:31:00,
2013-03-08 20:41:00,57.0,34.0,30.07,SE,130,15.0,23.0,41,-99.99,,,-99.99,,2013-03-09 02:41:00,
2013-03-08 20:51:00,57.0,34.0,30.07,SE,140,15.0,21.0,41,-99.99,,,-99.99,,2013-03-09 02:51:00,
2013-03-08 21:01:00,57.0,34.0,30.07,SE,140,15.0,21.0,41,-99.99,,,-99.99,,2013-03-09 03:01:00,
2013-03-08 21:11:00,57.0,34.0,30.06,SE,140,14.0,29.0,41,-99.99,,,-99.99,,2013-03-09 03:11:00,
2013-03-08 21:21:00,57.0,34.0,30.06,SE,140,14.0,29.0,41,-99.99,,,-99.99,,2013-03-09 03:21:00,
2013-03-08 21:31:00,57.0,34.0,30.06,SE,140,14.0,29.0,41,-99.99,,,-99.99,,2013-03-09 03:31:00,
2013-03-08 21:41:00,57.0,34.0,30.06,SE,140,14.0,29.0,41,-99.99,,,-99.99,,2013-03-09 03:41:00,
2013-03-08 21:52:00,55.0,37.0,30.07,SE,140,14.0,25.0,50,-99.99,,,-99.99,,2013-03-09 03:52:00,
2013-03-08 22:01:00,55.0,37.0,30.07,SE,140,14.0,25.0,50,-99.99,,,-99.99,,2013-03-09 04:01:00,
2013-03-08 22:11:00,54.0,37.0,30.06,SE,130,14.0,23.0,54,-99.99,,,-99.99,,2013-03-09 04:11:00,
2013-03-08 22:22:00,54.0,37.0,30.06,SE,130,14.0,23.0,54,-99.99,,,-99.99,,2013-03-09 04:22:00,
2013-03-08 22:32:00,54.0,37.0,30.06,SE,130,14.0,23.0,54,-99.99,,,-99.99,,2013-03-09 04:32:00,
2013-03-08 22:41:00,54.0,37.0,30.06,SE,130,14.0,23.0,54,-99.99,,,-99.99,,2013-03-09 04:41:00,
2013-03-08 22:51:00,54.0,37.0,30.05,SSE,150,12.0,17.0,54,-99.99,,,-99.99,,2013-03-09 04:51:00,
2013-03-08 23:02:00,54.0,37.0,30.05,SSE,150,12.0,17.0,54,-99.99,,,-99.99,,2013-03-09 05:02:00,
2013-03-08 23:12:00,54.0,37.0,30.05,SSE,150,13.0,18.0,54,-99.99,,,-99.99,,2013-03-09 05:12:00,
2013-03-08 23:22:00,54.0,37.0,30.05,SSE,150,13.0,18.0,54,-99.99,,,-99.99,,2013-03-09 05:22:00,
2013-03-08 23:31:00,52.0,41.0,30.05,SSE,160,7.0,-999.0,66,-99.99,,,-99.99,,2013-03-09 05:31:00,
2013-03-08 23:42:00,52.0,41.0,30.05,SSE,160,7.0,-999.0,66,-99.99,,,-99.99,,2013-03-09 05:42:00,
2013-03-08 23:52:00,50.0,41.0,30.04,SE,140,10.0,17.0,71,-99.99,,,-99.99,,2013-03-09 05:52:00,